www.pogodaiklimat.ru

Архив погоды в Барселоне (Испания)

Время
(UTC), дата
07 6.06
08 6.06
09 6.06
10 6.06
11 6.06
12 6.06
13 6.06
14 6.06
15 6.06
16 6.06
17 6.06
18 6.06
19 6.06
20 6.06
21 6.06
22 6.06
23 6.06
00 7.06
01 7.06
02 7.06
03 7.06
04 7.06
05 7.06
06 7.06
07 7.06
08 7.06
09 7.06
10 7.06
11 7.06
12 7.06
13 7.06
14 7.06
15 7.06
16 7.06
17 7.06
18 7.06
19 7.06
20 7.06
21 7.06
22 7.06
23 7.06
00 8.06
01 8.06
02 8.06
03 8.06
04 8.06
05 8.06
06 8.06
07 8.06
08 8.06
09 8.06
10 8.06
11 8.06
12 8.06
13 8.06
14 8.06
15 8.06
16 8.06
17 8.06
18 8.06
19 8.06
20 8.06
21 8.06
22 8.06
23 8.06
00 9.06
01 9.06
02 9.06
03 9.06
04 9.06
05 9.06
06 9.06
07 9.06
08 9.06
09 9.06
10 9.06
11 9.06
12 9.06
13 9.06
14 9.06
15 9.06
16 9.06
17 9.06
18 9.06
19 9.06
20 9.06
21 9.06
22 9.06
23 9.06
00 10.06
01 10.06
02 10.06
03 10.06
04 10.06
05 10.06
06 10.06
07 10.06
08 10.06
09 10.06
10 10.06
11 10.06
12 10.06
13 10.06
14 10.06
15 10.06
16 10.06
17 10.06
18 10.06
19 10.06
20 10.06
21 10.06
22 10.06
23 10.06
00 11.06
01 11.06
02 11.06
03 11.06
04 11.06
05 11.06
06 11.06
07 11.06
08 11.06
09 11.06
10 11.06
11 11.06
12 11.06
13 11.06
14 11.06
15 11.06
16 11.06
17 11.06
18 11.06
19 11.06
20 11.06
21 11.06
22 11.06
23 11.06
00 12.06
01 12.06
02 12.06
03 12.06
04 12.06
05 12.06
06 12.06
07 12.06
08 12.06
09 12.06
10 12.06
11 12.06
12 12.06
13 12.06
14 12.06
15 12.06
16 12.06
17 12.06
18 12.06
19 12.06
20 12.06
21 12.06
22 12.06
23 12.06
00 13.06
01 13.06
02 13.06
03 13.06
04 13.06
05 13.06
06 13.06
07 13.06
Ветер
(напр.,м/с)
Видим. Явления Облачность Т
(С)
Тd
(С)
f
(%)
Тe
(С)
Тes
(С)
Комфортность P
(гПа)
Po
(гПа)
Тmin
(С)
Tmax
(С)
R
(мм)
R24
(мм)
S
(см)
СЗ 2 30 км н/о +22.6 +15.9 66 +27 +27 душно 1018.0 1017.4
ЮЗ 4 30 км н/о +23.8 +17.4 67 +28 +28 душно 1018.0 1017.4
ЮЗ 6 20 км 6/0
[Cs]
+24.9 +15.6 56 +28 +32 жарко 1017.9 1017.3
ЮЗ 8 30 км н/о +25.5 +16.0 56 +29 +29 душно 1017.9 1017.3
ЮЗ 8 30 км н/о +25.1 +17.1 61 +29 +29 душно 1017.9 1017.3
ЮЗ 8 20 км 8/0
[Cs]
+25.2 +17.1 61 +29 +33 душно 1018.1 1017.5
ЮЗ 7 27 км н/о +25.6 +17.6 61 +30 +30 душно 1017.7 1017.1
ЮЗ 6 30 км н/о +25.1 +18.8 68 +30 +30 душно 1017.5 1016.9
ЮЗ 7 20 км 8/0
[Cs]
+24.5 +18.6 70 +29 +32 душно 1017.2 1016.6
ЮЗ 6 30 км н/о +24.3 +18.0 68 +29 +29 душно 1017.0 1016.4
ЮЗ 5 30 км н/о +24.1 +16.9 64 +28 +28 душно 1016.8 1016.2
ЮЗ 5 20 км 8/0
[Cs]
+25.1 +14.8 53 +28 +28 жарко 1016.7 1016.1 +26.4
ЮЗ 5 30 км н/о +23.8 +14.5 56 +26 +26 жарко 1016.6 1016.0
ЮЗ 4 30 км н/о +23.4 +13.8 55 +27 +27 душно 1016.8 1016.2
ЮЗ 3 30 км 5/0
[Cs]
+22.4 +16.5 69 +27 +27 душно 1017.5 1016.9
Ю 2 30 км н/о +22.2 +16.9 72 +27 +27 душно 1017.6 1017.0
Ю 2 30 км н/о +22.2 +17.3 74 +27 +27 душно 1017.8 1017.2
Ю 2 30 км 5/0
[Cs]
+22.0 +17.3 75 +26 +26 душно 1017.9 1017.3
С 2 30 км н/о +20.5 +16.9 80 +25 +25 комфорт 1017.9 1017.3
СЗ 1 30 км н/о +19.7 +11.7 60 +23 +23 комфорт 1017.9 1017.3
С 1 17 км 1/0
[Ci fib]
+19.7 +11.0 57 +22 +22 комфорт 1017.8 1017.2
С 3 30 км н/о +19.3 +11.0 59 +21 +21 комфорт 1017.7 1017.1
С 5 30 км н/о +20.1 +10.8 55 +21 +21 комфорт 1017.5 1016.9
С 4 22 км 1/0
[Ci fib]
+21.6 +10.4 49 +23 +25 комфорт 1017.4 1016.8 +19.1
СВ 4 30 км н/о +24.4 +11.0 43 +26 +26 жарко 1017.6 1017.0
С 4 30 км н/о +27.0 +10.5 36 +28 +28 жарко 1017.5 1016.9
ЮВ 5 35 км 3/0
[Ac trans Ci fib]
+26.3 +13.8 46 +28 +35 жарко 1017.4 1016.8
ЮВ 5 30 км н/о +25.8 +16.4 56 +29 +29 душно 1018.2 1017.6
ЮВ 5 30 км н/о +25.8 +17.6 61 +30 +30 душно 1018.0 1017.4
В 6 30 км 8/0
[Cs]
+25.9 +18.4 63 +31 +37 очень душно 1017.7 1017.1
В 6 30 км н/о +24.9 +18.9 69 +30 +30 душно 1018.0 1017.4
В 6 24 км н/о +25.3 +18.5 66 +30 +30 душно 1017.8 1017.2
В 7 30 км 3/0
[Ci fib]
+25.0 +18.3 66 +29 +32 душно 1016.9 1016.3
В 8 30 км н/о +24.2 +18.2 69 +29 +29 душно 1016.4 1015.8
В 7 30 км н/о +23.8 +17.8 69 +28 +28 душно 1016.0 1015.4
В 7 30 км 10/0
[Cs]
+23.6 +17.5 69 +28 +28 душно 1015.5 1014.9 +28.5
В 6 30 км н/о +23.3 +14.1 56 +27 +27 душно 1015.4 1014.8
В 5 30 км н/о +22.9 +17.1 70 +28 +28 душно 1015.7 1015.1
В 5 35 км 10/0
[Ac trans Cs]
+23.0 +16.5 67 +28 +28 душно 1016.1 1015.5
СВ 6 30 км н/о +23.5 +15.2 60 +26 +26 жарко 1014.9 1014.3
СВ 4 30 км н/о +23.9 +13.1 51 +26 +26 жарко 1015.2 1014.6
В 4 30 км 8/0
[Cs]
+23.8 +11.9 47 +25 +25 комфорт 1014.5 1013.9
СВ 5 30 км н/о +23.8 +12.7 50 +26 +26 жарко 1013.5 1012.9
С 5 30 км н/о +23.1 +11.2 47 +25 +25 комфорт 1012.6 1012.0
С 4 30 км 8/0
[Cs]
+22.6 +10.7 47 +25 +25 комфорт 1011.9 1011.3
С 4 30 км н/о +23.1 +10.2 44 +25 +25 комфорт 1011.6 1011.0
СВ 4 30 км н/о +23.0 +10.4 45 +25 +25 комфорт 1011.2 1010.6
В 8 30 км 10/0
[Cs]
+24.7 +12.3 46 +26 +27 жарко 1010.8 1010.2 +22.6
В 10 27 км н/о +26.1 +11.4 40 +27 +27 жарко 1010.6 1010.0
В 8 30 км н/о +26.0 +12.3 43 +28 +28 жарко 1010.6 1010.0
В 12 10 км ясно +25.5 +12.2 44 +27 +27 жарко 1010.6 1010.0
В 11 21 км н/о +25.1 +15.9 57 +28 +28 жарко 1010.2 1009.6
В 11 21 км н/о +25.3 +16.7 59 +29 +29 душно 1009.6 1009.0
В 10 30 км ясно +25.5 +16.4 57 +29 +30 душно 1009.2 1008.6
В 10 30 км н/о +25.4 +16.5 58 +29 +29 душно 1008.4 1007.8
В 10 21 км н/о +25.1 +17.4 62 +29 +29 душно 1007.4 1006.8
В 9 15 км н/о +24.3 +18.3 69 +29 +29 душно 1007.2 1006.6
В 8 14 км н/о +23.5 +18.6 74 +28 +28 душно 1006.6 1006.0
В 7 15 км н/о +23.1 +18.8 77 +29 +29 очень душно 1005.9 1005.3
В 8 15 км 9/1 300 м
[Sc Ac As]
+22.8 +19.0 79 +29 +29 очень душно 1005.3 1004.7 +26.3
В 5 15 км н/о +22.5 +18.7 79 +28 +28 душно 1006.0 1005.4
В 8 16 км н/о +22.6 +18.2 76 +28 +28 душно 1005.9 1005.3
В 8 15 км н/о +22.4 +18.2 77 +28 +28 душно 1006.8 1006.2
В 7 16 км н/о +22.2 +18.1 78 +27 +27 душно 1007.3 1006.7
В 5 16 км н/о +22.0 +17.8 77 +27 +27 душно 1007.1 1006.5
В 6 23 км 3/1 600 м
[Sc]
+21.8 +17.0 74 +26 +26 душно 1005.6 1005.0
СВ 4 28 км н/о +21.9 +16.0 69 +26 +26 душно 1005.2 1004.6
В 3 26 км н/о +21.8 +16.5 72 +26 +26 душно 1004.8 1004.2
В 4 24 км н/о +21.7 +16.7 73 +26 +26 душно 1004.6 1004.0
В 4 24 км н/о +21.4 +17.2 77 +25 +25 комфорт 1004.0 1003.4
В 4 28 км н/о +21.4 +17.0 76 +25 +25 комфорт 1004.2 1003.6
СВ 4 22 км н/о +21.5 +16.9 75 +25 +25 комфорт 1004.7 1004.1 +21.3
В 5 26 км н/о +21.6 +17.1 76 +26 +26 душно 1004.8 1004.2
СВ 4 12 км морось н/о +20.8 +18.4 86 +25 +25 комфорт 1004.5 1003.9
ЮВ 4 16 км {ливн. дождь, дождь} 10/8 300 м
[Cu Sc As trans Cs]
+23.2 +17.6 71 +29 +30 душно 1005.1 1004.5 0.0
Ю 3 16 км н/о +23.4 +18.1 72 +29 +29 душно 1005.2 1004.6
ЮВ 4 16 км н/о +23.7 +18.3 72 +28 +28 душно 1005.5 1004.9
Ю 4 22 км {ливн. дождь, дождь} 8/6 200 м
[Cu Sc As trans Ci sp]
+23.7 +16.3 63 +27 +31 жарко 1005.6 1005.0
Ю 5 30 км слаб. дождь н/о +22.6 +17.3 72 +27 +27 душно 1006.2 1005.6
ЮЗ 5 23 км н/о +22.2 +18.5 80 +27 +27 душно 1006.3 1005.7
ЮЗ 5 25 км {ливн. дождь, дождь} 9/5 200 м
[Cu Sc Ac As Ci sp]
+22.9 +17.5 72 +28 +30 душно 1006.4 1005.8
Ю 3 16 км слаб. дождь н/о +21.4 +18.0 81 +26 +26 душно 1006.4 1005.8
Ю 2 25 км н/о +23.2 +18.6 75 +29 +29 душно 1006.3 1005.7
Ю 3 27 км {ливн. дождь, дождь} 8/3 300 м
[Cu Sc Ac cuf Ci sp]
+22.9 +17.9 73 +28 +29 душно 1006.7 1006.1 +24.3 2
ЮЗ 2 28 км н/о +22.8 +18.5 77 +29 +29 очень душно 1007.5 1006.9
З 1 16 км н/о +21.8 +18.2 80 +27 +27 душно 1008.2 1007.6
ЮЗ 3 18 км 3/1 600 м
[Cu hum Ac trans]
+21.8 +19.0 84 +27 +27 душно 1008.8 1008.2
СЗ 1 22 км н/о +21.3 +18.5 84 +26 +26 душно 1009.1 1008.5
С 3 16 км н/о +20.6 +18.5 88 +25 +25 комфорт 1009.4 1008.8
С 4 23 км 8/1 600 м
[Cu hum Ac und Ci fib]
+20.7 +17.2 80 +24 +24 комфорт 1009.8 1009.2
С 4 30 км н/о +20.8 +14.9 69 +24 +24 комфорт 1009.3 1008.7
С 3 30 км н/о +20.6 +13.5 64 +24 +24 комфорт 1009.8 1009.2
С 4 30 км 8/4 600 м
[Cu Sc Ac trans]
+20.7 +12.9 61 +23 +23 комфорт 1009.8 1009.2
С 5 30 км н/о +20.0 +12.2 61 +22 +22 комфорт 1009.8 1009.2
С 5 30 км н/о +19.0 +11.8 63 +20 +20 тепло 1010.2 1009.6
С 5 30 км 8/5 600 м
[Cu med, cong Ac As Ci sp]
+19.1 +11.6 62 +20 +20 тепло 1010.7 1010.1 +18.9 1.6
С 5 30 км слаб. дождь н/о +19.6 +11.1 58 +21 +21 комфорт 1011.1 1010.5
С 4 30 км н/о +20.2 +11.7 58 +22 +22 комфорт 1011.7 1011.1
СВ 3 20 км в посл. час снег {дождь, морось} 10/6 300 м
[Cu med, cong Ac As]
+22.1 +14.6 62 +25 +27 комфорт 1011.8 1011.2
В 6 18 км н/о +20.9 +17.0 78 +24 +24 комфорт 1012.1 1011.5
В 4 17 км слаб. дождь н/о +19.2 +16.3 83 +21 +21 комфорт 1012.7 1012.1
В 4 20 км {дождь} 10/10 300 м
[St]
+20.2 +15.8 76 +23 +23 комфорт 1012.7 1012.1 0.0
В 4 30 км н/о +20.5 +14.7 69 +23 +23 комфорт 1012.7 1012.1
В 3 30 км н/о +21.5 +15.2 67 +25 +25 комфорт 1012.5 1011.9
В 3 20 км 10/10 600 м
[Sc diur, vesp]
+20.5 +15.7 74 +24 +24 комфорт 1012.3 1011.7
ЮВ 3 29 км н/о +20.7 +15.3 71 +24 +24 комфорт 1012.2 1011.6
В 2 30 км н/о +20.9 +15.4 71 +25 +25 комфорт 1012.1 1011.5
В 2 20 км 9/1 600 м
[Frnb Ac As]
+20.4 +16.2 77 +24 +24 комфорт 1012.5 1011.9 +22.1
В 1 30 км н/о +20.4 +15.4 73 +24 +24 комфорт 1013.1 1012.5
В 2 30 км н/о +20.3 +15.7 75 +24 +24 комфорт 1013.5 1012.9
В 2 30 км 9/3 1500 м
[Sc Ac As Ci sp]
+20.3 +15.1 72 +24 +24 комфорт 1013.9 1013.3
СЗ 1 27 км н/о +20.1 +15.3 74 +24 +24 комфорт 1013.8 1013.2
СЗ 1 30 км н/о +20.0 +15.2 74 +23 +23 комфорт 1013.7 1013.1
СЗ 2 30 км 9/9 1500 м
[Cu Sc]
+19.8 +14.6 72 +23 +23 комфорт 1013.6 1013.0
С 2 30 км н/о +19.7 +14.7 73 +22 +22 комфорт 1013.2 1012.6
штиль 0 30 км н/о +19.5 +14.7 74 +21 +21 комфорт 1013.1 1012.5
С 2 30 км в посл. час дождь 10/10 1500 м
[Ns]
+19.2 +15.0 77 +21 +21 комфорт 1012.8 1012.2
С 3 30 км н/о +18.9 +15.2 79 +20 +20 тепло 1012.7 1012.1
СВ 2 30 км н/о +19.1 +15.2 78 +21 +21 комфорт 1013.3 1012.7
С 3 27 км {морось} 9/5 300 м
[Cu Sc As op Ci sp]
+19.2 +16.0 82 +21 +22 комфорт 1013.6 1013.0 +18.8 0.0
С 4 22 км н/о +19.9 +15.2 74 +22 +22 комфорт 1014.0 1013.4
С 7 30 км н/о +21.4 +14.5 65 +24 +24 комфорт 1014.0 1013.4
С 5 30 км н/о +21.5 +14.6 65 +25 +25 комфорт 1014.4 1013.8
С 5 30 км н/о +21.4 +14.4 64 +24 +24 комфорт 1014.5 1013.9
С 5 30 км н/о +20.8 +14.2 66 +24 +24 комфорт 1014.8 1014.2
С 6 30 км н/о +20.2 +14.7 71 +22 +22 комфорт 1014.7 1014.1
С 4 30 км морось н/о +19.3 +15.1 77 +21 +21 комфорт 1014.9 1014.3
С 5 17 км морось н/о +18.3 +15.7 85 +18 +18 холодно 1015.2 1014.6
С 3 6000 м дождь н/о +17.1 +15.8 92 +17 +17 холодно 1015.3 1014.7 5
СВ 3 8000 м дождь н/о +17.2 +15.1 87 +17 +17 холодно 1015.3 1014.7
ЮЗ 2 4100 м сильн. дождь н/о +17.1 +15.4 90 +17 +17 холодно 1015.4 1014.8
С 1 8000 м дождь н/о +17.1 +15.8 92 +18 +18 прохладно 1015.6 1015.0 +22.4 11
СЗ 2 4800 м дождь н/о +16.8 +16.0 95 +17 +17 прохладно 1016.1 1015.5
ЮВ 2 28 км слаб. дождь н/о +16.9 +13.7 81 +17 +17 прохладно 1016.7 1016.0
В 1 20 км морось {дождь} 10/10 300 м
[Frnb]
+17.1 +12.9 76 +18 +18 по сезону 1017.3 1016.6 4
СВ 2 10 км морось н/о +16.6 +15.1 91 +17 +17 прохладно 1017.5 1016.8
СЗ 3 6000 м дождь н/о +16.0 +14.9 93 +16 +16 холодно 1017.4 1016.7
СЗ 4 8000 м морось {дождь} 10/10 300 м
[Frnb]
+16.0 +15.2 95 +15 +15 прохладно 1017.2 1016.5 4
С 4 30 км н/о +16.2 +14.8 91 +15 +15 прохладно 1016.7 1016.0
С 3 18 км н/о +16.2 +15.1 93 +16 +16 прохладно 1016.4 1015.7
С 4 16 км 10/5 600 м
[Frnb Ac As]
+16.3 +15.0 92 +16 +16 прохладно 1016.2 1015.5 0.0
С 3 14 км н/о +16.5 +15.2 92 +16 +16 прохладно 1016.4 1015.7
С 3 15 км н/о +16.7 +15.2 91 +16 +16 прохладно 1016.7 1016.0
С 3 16 км 8/1 600 м
[Frnb As op]
+17.3 +15.4 89 +17 +18 по сезону 1016.8 1016.2 +15.9 24.6
С 2 17 км н/о +19.0 +15.6 81 +21 +21 комфорт 1017.0 1016.4
З 2 30 км н/о +20.2 +15.6 75 +23 +23 комфорт 1017.2 1016.6
ЮЗ 3 30 км 9/5 600 м
[Cu med, cong Ac As Ci sp]
+20.8 +15.1 70 +24 +28 комфорт 1017.4 1016.8
ЮЗ 3 30 км н/о +21.6 +14.7 65 +25 +25 комфорт 1017.5 1016.9
ЮЗ 4 30 км н/о +21.9 +15.4 67 +26 +26 душно 1017.6 1017.0
ЮЗ 5 30 км 5/5 600 м
[Cu med, cong Ci sp]
+21.8 +15.6 68 +25 +31 комфорт 1017.4 1016.8
ЮЗ 6 30 км н/о +22.2 +15.4 65 +26 +26 душно 1017.0 1016.4
ЮЗ 6 30 км н/о +22.3 +14.0 59 +25 +25 комфорт 1016.8 1016.2
ЮЗ 6 30 км 9/4 600 м
[Cu med, cong Ac As Ci sp]
+21.6 +14.3 63 +25 +26 комфорт 1016.8 1016.2
З 5 30 км н/о +21.4 +13.6 61 +24 +24 комфорт 1016.9 1016.3
ЮЗ 6 30 км н/о +21.8 +13.0 57 +24 +24 комфорт 1017.1 1016.5
Ю 4 30 км осадки на расстоянии 9/5 300 м
[Cu med, cong Ac As Ci sp]
+20.9 +14.5 67 +24 +24 комфорт 1017.7 1017.1 +22.5
СВ 8 9000 м сильн. дождь н/о +14.6 +13.3 92 +12 +12 очень холодно 1019.0 1018.3
В 3 4900 м сильн. дождь н/о +14.9 +13.8 93 +14 +14 очень холодно 1020.2 1019.5
В 4 30 км н/о +15.4 +13.6 89 +14 +14 холодно 1020.8 1020.1 16
СВ 4 30 км н/о +15.8 +12.9 83 +15 +15 холодно 1020.8 1020.1
С 4 17 км н/о +15.2 +13.9 92 +14 +14 холодно 1021.1 1020.4
С 4 15 км 8/1 600 м
[Cu Sc Ac As]
+14.8 +13.7 93 +14 +14 прохладно 1020.8 1020.1 4
С 4 20 км н/о +14.6 +13.3 92 +13 +13 холодно 1020.4 1019.7
С 4 14 км н/о +14.3 +12.8 91 +13 +13 холодно 1020.3 1019.6
С 5 16 км н/о +14.2 +12.6 90 +13 +13 холодно 1020.2 1019.5 0.0
С 4 28 км н/о +13.9 +12.3 90 +12 +12 холодно 1020.4 1019.7
С 4 27 км н/о +14.0 +12.2 89 +13 +13 холодно 1020.4 1019.7
С 4 30 км 1/1 300 м
[Cu hum]
+15.4 +12.9 85 +15 +16 прохладно 1020.7 1020.0 +13.8 20.1
С 4 30 км н/о +17.1 +13.8 81 +17 +17 по сезону 1020.9 1020.2
Местоположение метеостанции Барселона (Испания): широта 41.28 долгота 2.07 высота над уровнем моря 6 м.
В архиве по умолчанию представлена погода в Барселоне за последнюю неделю. Архивные данные за месяц целиком и за предыдущие месяцы, начиная с января 2011 года, Вы можете получить, выбрав интересующий диапазон дат из раскрывающегося списка и нажав кнопку "Найти!".
*Определитесь, кто Вы:
Внимание! Время в таблицах - всемирное. Для получения местного времени необходимо прибавить поправку, которая равна 1 ч.
Некоторые строки с данными для отдельных станций могут быть выделены курсивом. Это означает, что фактические данные отсутствуют по различным причинам, а приведенные значения являются расчетными модельными данными для данного пункта наблюдений.
Смотрите также архив погоды в соседних городах и на ближайших метеорологических станциях:
Партнеры нашего сайта:      
Пояснения к столбцам:
  • Ветер - указаны скорость ветра в м/с - средняя за 10 мин, порывы в срок и между сроками (в фигурных скобках) и направление, откуда дует ветер: С - северный,
  • СВ - северо-восточный, В - восточный, ЮВ - юго-восточный, Ю - южный, ЮЗ - юго-западный, З - западный, СЗ - северо-западный.
  • Видимость - горизонтальная дальность видимости в метрах или километрах. При видимости от 1 до 10 км при отсутствии осадков обычно наблюдается дымка, при ухудшении видимости до 1 км и менее - туман. В сухую погоду видимость может ухудшаться дымом, пылью или мглою.
  • Явления - указаны атмосферные явления, наблюдавшиеся в срок или в последний час перед сроком; фигурными скобками обозначены явления, наблюдавшиеся между сроками (за 1-3 часа до срока); квадратными скобками обозначены град или гололедные отложения с указанием их диаметра в мм.
  • Облачность - указаны через наклонную черту общая и нижняя облачность в баллах и высота нижней границы облаков в метрах; квадратными скобками обозначены формы облаков: Ci - перистые, Cs - перисто-слоистые, Cc - перисто-кучевые, Ac - высококучевые, As - высокослоистые, Sc - слоисто-кучевые, Ns - слоисто-дождевые, Cu - кучевые, Cb - кучево-дождевые. Подробнее классификацию облаков см. в Атласе облаков (PDF).
  • T - Температура воздуха - температура, измеренная на высоте 2 м над землей.
  • Td - Температура точки росы - температура, при понижении до которой содержащийся в воздухе водяной пар достигнет насыщения.
  • f - Относительная влажность воздуха - влажноcть воздуха, измеренная на высоте 2 м над землей.
  • Te - Эффективная температура - температура, которую ощущает одетый по сезону человек в тени. Характеристика душности погоды. При расчете учитывается влияние влажности воздуха и скорости ветра на теплоощущения человека.
  • Tes - Эффективная температура на солнце - температура, которую ощущает человек, с поправкой на солнечный нагрев. Характеристика знойности погоды. Зависит от высоты солнца над горизонтом, облачности и скорости ветра. Ночью, в пасмурную погоду, а также при ветре 12 м/с и более поправка равна нулю.
  • P - Атмосферное давление - приведенное к уровню моря атмосферное давление.
  • Po - Атмосферное давление - измеренное на уровне метеостанции атмосферное давление.
  • Tmin - Минимальная температура - минимум температуры воздуха на высоте 2 м над землей.
  • Tmax - Максимальная температура - максимум температуры воздуха на высоте 2 м над землей.
  • R - Количество осадков - Количество выпавших осадков за период времени, мм. При наведении курсора мыши на число - период времени, за который выпало указанное количество осадков.
  • R24 - Количество осадков - Количество выпавших осадков за 24 часа, мм.
  • S - Снежный покров - Высота снежного покрова, см. При наведении курсора мыши на число - состояние снежного покрова и степень покрытия местности в баллах.